Regional Weather Roundup
Issued by NWS Columbia, SC

Home | Current Version | Previous Version | Text Only | Print | Product List | Glossary On
Versions: 1 2 3 4 5 6 7 8 9 10 11 12 13 14 15 16 17 18 19 20 21 22 23 24 25 26 27 28 29 30 31 32 33 34 35 36 37 38 39 40 41 42 43 44 45 46 47 48 49 50
000
ASUS42 KCAE 160110
RWRCAE
REGIONAL WEATHER ROUNDUP
NATIONAL WEATHER SERVICE COLUMBIA SC
900 PM EDT MON SEP 15 2014

NOTE: "FAIR" INDICATES FEW OR NO CLOUDS BELOW 12,000 FEET WITH NO
SIGNIFICANT WEATHER AND/OR OBSTRUCTIONS TO VISIBILITY.

NOT ALL STATIONS ARE QUALITY CONTROLLED BY THE NATIONAL
WEATHER SERVICE. USE DATA WITH CAUTION...ESPECIALLY
DEWPOINT OBSERVATIONS.

SCZ001>056-GAZ040-063>065-077-160200-
...UPSTATE SOUTH CAROLINA...

CITY           SKY/WX    TMP DP  RH WIND       PRES   REMARKS
ANDERSON       CLOUDY    72  69  90 SE3       30.16R
LIBERTY        DRIZZLE   70  70 100 CALM      30.16S
SPARTANBURG    LGT RAIN  72  72 100 CALM      30.16R
CLEMSON        LGT RAIN  72  68  87 SW3       30.17R FOG
GREENVILLE     LGT RAIN  71  68  90 S5        30.17R
GREENWOOD      CLOUDY    73  69  87 CALM      30.16R
GREER          CLOUDY    70  69  97 S5        30.16R
ROCK HILL      MOCLDY    71  69  93 CALM      30.16R
LAURENS        CLOUDY    72 N/A N/A CALM      30.17R


...CENTRAL SOUTH CAROLINA...

CITY           SKY/WX    TMP DP  RH WIND       PRES   REMARKS
COLUMBIA APT   CLOUDY    75  70  84 E3        30.14R
COLUMBIA OWENS CLOUDY    75  70  84 CALM      30.15R
DARLINGTON     CLOUDY    73  66  78 CALM      30.16R
FLORENCE       CLOUDY    74  70  87 E3        30.14R
MCENTIRE ANGB  CLOUDY    74  73  96 CALM      30.15R
ORANGEBURG     LGT RAIN  76  71  85 NE3       30.14R
SUMTER SHAW    CLOUDY    75  70  85 E2        30.13S
NEWBERRY       CLOUDY    72  72 100 CALM      30.18R
AIKEN          CLOUDY    73  73 100 SE5       30.18R
BARNWELL       CLOUDY    75  73  94 E5        30.15R
MANNING        CLOUDY    77 N/A N/A CALM      30.14R
CAMDEN         CLOUDY    73  70  88 CALM      30.16R
LANCASTER      CLOUDY    73  73 100 CALM      30.16R
WINNSBORO      CLOUDY    72  70  94 CALM      30.15S


...EASTERN AND COASTAL SOUTH CAROLINA...

CITY           SKY/WX    TMP DP  RH WIND       PRES   REMARKS
MYRTLE BEACH   PTCLDY    75  70  83 N7        30.13R
N MYRTLE BCH   PTCLDY    72  69  90 N5        30.13R
CONWAY         MOCLDY    72 N/A N/A CALM      30.14R
MARION         MOCLDY    72  70  94 CALM      30.14S
HARTSVILLE     CLOUDY    73  59  60 CALM      30.17R
FLORENCE       CLOUDY    74  70  87 E3        30.14R
DARLINGTON     CLOUDY    73  66  78 CALM      30.16R
CHARLESTON APT MOCLDY    77  74  90 N3        30.13R
MOUNT PLEASANT FAIR      75  75 100 CALM      30.13R FOG
WALTERBORO     CLOUDY    75 N/A N/A SE3       30.15R
BEAUFORT       MOCLDY    77  72  84 CALM      30.14R


...EASTERN GEORGIA...

CITY           SKY/WX    TMP DP  RH WIND       PRES   REMARKS
AUGUSTA BUSH F CLOUDY    73  72  96 SE3       30.13R
AUGUSTA DANIEL MOCLDY    75  72  90 E3        30.15R
THOMSON        MOCLDY    75  75 100 CALM      30.18S
WASHINGTON     CLOUDY    77  77 100 CALM      30.14S
SYLVANIA       CLEAR     75  74  96 CALM      30.15R
SAVANNAH       MOCLDY    77  73  87 CALM      30.14R


...SOUTHERN NORTH CAROLINA...

CITY           SKY/WX    TMP DP  RH WIND       PRES   REMARKS
CHARLOTTE      LGT RAIN  73  66  78 SE6       30.15F
MONROE         CLOUDY    70  67  90 CALM      30.15R
WADESBORO      PTCLDY    70  67  91 CALM      30.15R FOG
ROCKINGHAM     CLOUDY    72  68  89 CALM      30.14F
RUTHERFORDTON  LGT RAIN  68  68  98 E5        30.17S
ASHEVILLE      LGT RAIN  67  66  97 S6        30.20S

$$


USA.gov is the U.S. government's official web portal to all federal, state and local government web resources and services.